Bellingham, WA

2:39 PM PDT on June 25, 2017 (GMT -0700)
Bellingham International

Weather History for KBLI - August, 2013

Change the Weather History Date:

Thursday, August 22, 2013

  Actual Average Record
Temperature  
Mean Temperature 66 °F 62 °F  
Max Temperature 81 °F 71 °F 86 °F (1956)
Min Temperature 50 °F 53 °F 43 °F (1969)
Degree Days  
Heating Degree Days 0 3  
Month to date heating degree days 20 47  
Since 1 June heating degree days 196 349  
Cooling Degree Days 1 0  
Month to date cooling degree days 22 0  
Year to date cooling degree days 71 23  
Since 1 June cooling degree days 71 23  
Growing Degree Days 16 (Base 50)    
Moisture  
Dew Point 53 °F    
Average Humidity 68    
Maximum Humidity 96    
Minimum Humidity 39    
Precipitation  
Precipitation 0.00 in 0.05 in 1.31 in (1950)
Month to date precipitation 0.44 0.80  
Year to date precipitation 15.35 19.92  
Sea Level Pressure  
Sea Level Pressure 29.89 in    
Wind  
Wind Speed 4 mph (SW)    
Max Wind Speed 14 mph    
Max Gust Speed 20 mph    
Visibility 10 miles    
Events      
T = Trace of Precipitation, MM = Missing Value Source: NWS Daily Summary

Daily Weather History Graph

Daily Weather History Graph

Search for Another Location

Airport or City:

Trip Planner

Search our weather history database for the weather conditions in past years. The results will help you decide how hot, cold, wet, or windy it might be!

Date:

Astronomy

Aug. 22, 2013 Rise Set
Actual Time 6:13 AM PDT 8:11 PM PDT
Civil Twilight 5:39 AM PDT 8:45 PM PDT
Nautical Twilight 4:57 AM PDT 9:26 PM PDT
Astronomical Twilight 4:10 AM PDT 10:13 PM PDT
Moon 8:41 PM PDT (8/22) 8:23 AM PDT (8/22)
Length of Visible Light 15h 05m
Length of Day
13h 58m
Waning Gibbous, 96% of the Moon is Illuminated
Aug 22
Waning Gibbous
Aug 28
Last Quarter
Sep 5
New
Sep 12
First Quarter
Sep 19
Full

Hourly Weather History & Observations

Time (PDT) Temp. Heat Index Dew Point Humidity Pressure Visibility Wind Dir Wind Speed Gust Speed Precip Events Conditions
12:53 AM 55.9 °F - 52.0 °F 87% 29.97 in 10.0 mi Calm Calm - N/A   Clear
1:53 AM 54.0 °F - 51.1 °F 90% 29.97 in 10.0 mi Calm Calm - N/A   Clear
2:53 AM 53.1 °F - 51.1 °F 93% 29.96 in 10.0 mi Calm Calm - N/A   Clear
3:53 AM 54.0 °F - 50.0 °F 86% 29.96 in 10.0 mi Calm Calm - N/A   Clear
4:53 AM 53.1 °F - 50.0 °F 89% 29.95 in 10.0 mi Calm Calm - N/A   Clear
5:53 AM 51.1 °F - 48.9 °F 92% 29.95 in 10.0 mi Calm Calm - N/A   Clear
6:53 AM 52.0 °F - 50.0 °F 93% 29.95 in 10.0 mi Calm Calm - N/A   Clear
7:53 AM 57.0 °F - 54.0 °F 89% 29.96 in 10.0 mi Calm Calm - N/A   Clear
8:53 AM 64.0 °F - 55.0 °F 73% 29.95 in 10.0 mi NNE 3.5 mph - N/A   Clear
9:53 AM 69.1 °F - 55.0 °F 61% 29.94 in 10.0 mi North 5.8 mph - N/A   Clear
10:53 AM 73.9 °F - 54.0 °F 50% 29.92 in 10.0 mi Variable 4.6 mph - N/A   Clear
11:53 AM 75.0 °F - 57.0 °F 53% 29.91 in 10.0 mi West 5.8 mph - N/A   Clear
12:53 PM 75.0 °F - 55.0 °F 50% 29.90 in 10.0 mi West 8.1 mph - N/A   Clear
1:53 PM 77.0 °F - 54.0 °F 45% 29.89 in 10.0 mi Variable 5.8 mph - N/A   Clear
2:53 PM 77.0 °F - 55.0 °F 47% 29.88 in 10.0 mi West 5.8 mph - N/A   Clear
3:53 PM 75.9 °F - 52.0 °F 43% 29.86 in 10.0 mi Variable 4.6 mph - N/A   Clear
4:53 PM 79.0 °F - 52.0 °F 39% 29.83 in 10.0 mi South 3.5 mph - N/A   Clear
5:53 PM 80.1 °F 79.9 °F 53.1 °F 39% 29.81 in 10.0 mi South 3.5 mph - N/A   Clear
6:53 PM 75.9 °F - 55.0 °F 48% 29.81 in 10.0 mi SW 4.6 mph - N/A   Clear
7:53 PM 69.1 °F - 55.0 °F 61% 29.82 in 10.0 mi Calm Calm - N/A   Clear
8:53 PM 68.0 °F - 55.0 °F 63% 29.82 in 10.0 mi South 5.8 mph - N/A   Clear
9:53 PM 68.0 °F - 52.0 °F 56% 29.83 in 10.0 mi South 6.9 mph - N/A   Clear
10:53 PM 63.0 °F - 55.0 °F 75% 29.82 in 10.0 mi South 3.5 mph - N/A   Clear
11:53 PM 64.9 °F - 52.0 °F 63% 29.81 in 10.0 mi South 5.8 mph - N/A   Clear